Torna al catalogo

STARLINK-37489

AttivoComunicazioniVLEO
NORAD 69251·PAYLOAD·🇺🇸 United States

Lanciato May 29, 2026 da Cape Canaveral Space Force Station

Loading…

Prossimi Passaggi (prossime 24 ore)

TLE

AggiornatoSource: CelesTrak SupGP

Epoca: Sep 14, 2026, 22:58 UTC

1 69251C 26117P   26257.95743056 -.00070675  00000+0 -20877-2 0  2570
2 69251  53.1579 179.4529 0001339  95.1546  95.9317 15.34432232    12

Traccia STARLINK-37489 in tempo reale con AllMySat

Download on the App Store